Jackson, WY

10:23 AM MST on December 12, 2019 (GMT -0700)
Jackson Hole

Weather History for KJAC - October, 2019

Change the Weather History Date:

Sunday, October 13, 2019

  Actual Average Record
Temperature  
Mean Temperature 38 °F -  
Max Temperature 60 °F 55 °F 72 °F (1964)
Min Temperature 16 °F 24 °F 11 °F (1969)
Degree Days  
Heating Degree Days 27    
Moisture  
Dew Point 14 °F    
Average Humidity 52    
Maximum Humidity 88    
Minimum Humidity 13    
Precipitation  
Precipitation 0.00 in - - ()
Sea Level Pressure  
Sea Level Pressure 30.12 in    
Wind  
Wind Speed 4 mph ()    
Max Wind Speed 10 mph    
Max Gust Speed -    
Visibility 10.0 miles    
Events      
Averages and records for this station are not official NWS values.
T = Trace of Precipitation, MM = Missing Value Source: Averaged Metar Reports

Daily Weather History Graph

Daily Weather History Graph

Search for Another Location

Airport or City:

Astronomy

Oct. 13, 2019 Rise Set
Actual Time 7:34 AM MDT 6:43 PM MDT
Civil Twilight 7:05 AM MDT 7:11 PM MDT
Nautical Twilight 6:32 AM MDT 7:45 PM MDT
Astronomical Twilight 5:59 AM MDT 8:18 PM MDT
Moon 7:08 PM MDT (10/13) 7:09 AM MDT (10/13)
Length of Visible Light 12h 06m
Length of Day
11h 08m
Full, 100% of the Moon is Illuminated
Oct 13
Full
Oct 13
Full
Oct 21
Last Quarter
Oct 27
New
Nov 4
First Quarter

Hourly Weather History & Observations

Time (MDT) Temp. Windchill Dew Point Humidity Pressure Visibility Wind Dir Wind Speed Gust Speed Precip Events Conditions
12:56 AM 19.9 °F 13.4 °F 16.0 °F 85% 30.18 in 10.0 mi NNE 4.6 mph - N/A   Clear
1:56 AM 19.9 °F 13.4 °F 15.1 °F 81% 30.18 in 10.0 mi NE 4.6 mph - N/A   Clear
2:56 AM 19.9 °F 14.9 °F 16.0 °F 85% 30.17 in 10.0 mi NE 3.5 mph - N/A   Clear
3:56 AM 18.0 °F 9.8 °F 14.0 °F 84% 30.16 in 10.0 mi NNE 5.8 mph - N/A   Clear
4:56 AM 18.0 °F 12.7 °F 14.0 °F 84% 30.15 in 10.0 mi NNE 3.5 mph - N/A   Clear
5:56 AM 16.0 °F 8.8 °F 12.0 °F 84% 30.17 in 10.0 mi NNE 4.6 mph - N/A   Clear
6:56 AM 18.0 °F 9.8 °F 15.1 °F 88% 30.19 in 10.0 mi NNE 5.8 mph - N/A   Clear
7:56 AM 16.0 °F 7.4 °F 12.0 °F 84% 30.25 in 10.0 mi NNE 5.8 mph - N/A   Clear
8:56 AM 24.1 °F - 18.0 °F 77% 30.27 in 10.0 mi Calm Calm - N/A   Clear
9:56 AM 28.9 °F - 19.0 °F 67% 30.24 in 10.0 mi Calm Calm - N/A   Clear
10:56 AM 37.0 °F 34.5 °F 19.0 °F 48% 30.21 in 10.0 mi SE 3.5 mph - N/A   Clear
11:56 AM 41.0 °F - 19.0 °F 41% 30.18 in 10.0 mi Calm Calm - N/A   Clear
12:56 PM 46.9 °F - 17.1 °F 30% 30.12 in 10.0 mi Variable 5.8 mph - N/A   Clear
1:56 PM 52.0 °F - 19.0 °F 27% 30.06 in 10.0 mi Variable 6.9 mph - N/A   Clear
2:56 PM 57.0 °F - 14.0 °F 18% 30.01 in 10.0 mi Variable 4.6 mph - N/A   Clear
3:56 PM 60.1 °F - 9.0 °F 13% 29.99 in 10.0 mi South 10.4 mph - N/A   Clear
4:56 PM 59.0 °F - 7.0 °F 13% 29.98 in 10.0 mi SW 10.4 mph - N/A   Clear
5:56 PM 57.0 °F - 8.1 °F 14% 29.99 in 10.0 mi WSW 8.1 mph - N/A   Clear
6:56 PM 48.9 °F - 10.0 °F 21% 30.02 in 10.0 mi West 3.5 mph - N/A   Clear
7:56 PM 48.0 °F - 10.0 °F 22% 30.05 in 10.0 mi West 3.5 mph - N/A   Clear
8:56 PM 37.0 °F 34.5 °F 10.0 °F 33% 30.07 in 10.0 mi SE 3.5 mph - N/A   Clear
9:56 PM 34.0 °F - 12.9 °F 42% 30.07 in 10.0 mi Calm Calm - N/A   Clear
10:56 PM 36.0 °F - 12.0 °F 37% 30.03 in 10.0 mi Calm Calm - N/A   Clear
11:56 PM 26.1 °F 16.8 °F 16.0 °F 66% 30.05 in 10.0 mi NNE 9.2 mph - N/A   Clear